Iván Luna

Scout - Estudiantes
14 Okt 2027
Donnerstag
Verarbeitung

Persönlichkeit

Anpassungsfähigkeit (4) Ehrgeiz (9) Kontroverse (17) Loyalität (12) Druck (4) Professionalität (3) Fairness (15) Temperament (20)

Profil

Trainerstil Demokratisch
Lizenz Nationale A
Entschlossenheit 3
Menschenführung 5
Motivation 6
Disziplin 3
Arbeitszufriedenheit
100%
Ermüdung
0%
Rolle Scout
Gehalt 12.6K p/W
Vertrag 14.03.2030

Leistung

Verhalten Gut
Trainingseffektivität
16%
Spielerentwicklung
5%
Verletzungsprävention
35%
Taktische Umsetzung
15%

Letzte Ereignisse

Nahm an einer Scouting-Besprechung teil 7T her
Nahm an einer Scouting-Besprechung teil 14T her
Nahm an einer Scouting-Besprechung teil 21T her
Nahm an einer Scouting-Besprechung teil 28T her
Nahm an einer Scouting-Besprechung teil 35T her
Nahm an einer Scouting-Besprechung teil 42T her
Nahm an einer Scouting-Besprechung teil 49T her
Nahm an einer Scouting-Besprechung teil 56T her

Aktuell beobachtet

78
Spieler Verein Status Fähigkeit Vertrauen Beobachtet Zuletzt beobachtet Letzte Stimme
Matías Pérez Racing Club Aktiv 121 / 122 40% 1 29.11.2026 -
Germán Guiffrey Gimnasia y Esgrima Aktiv 112 / 107 40% 1 29.11.2026 -
Marcos Enrique Tristán Suárez Aktiv 115 / 100 40% 1 25.11.2026 -
Nazareno Fernández Colombo Los Andes Aktiv 108 / 96 40% 1 25.11.2026 -
Matías Núñez Carabobo Aktiv 97 / 94 40% 1 22.11.2026 -
Luis Gonzalez Atletico Venezuela Aktiv 115 / 119 40% 1 22.11.2026 -
Bruno Palazzo Nueva Chicago Aktiv 103 / 112 40% 1 20.11.2026 -
Franco Díaz Temperley Aktiv 116 / 125 40% 1 20.11.2026 -
Tomás Porra Barracas Central Aktiv 105 / 126 40% 2 18.11.2026 -
Malcom Braida Boca Juniors Aktiv 138 / 119 40% 1 14.11.2026 -
Juan Camilo Pérez Carabobo Aktiv 127 / 104 40% 2 11.11.2026 -
Francisco Ginella Albion Aktiv 105 / 110 40% 1 11.11.2026 -
Delvin Alfonzo Deportivo Tachira Aktiv 122 / 112 40% 2 10.11.2026 -
Walter Juárez Güemes Aktiv 110 / 110 40% 1 06.11.2026 -
Juan Orellana San Martín Aktiv 102 / 122 40% 1 06.11.2026 -
Tayvon Gray New York City Aktiv 99 / 96 40% 1 02.11.2026 -
Cristhián Rivas Estudiantes de Merida Aktiv 120 / 108 40% 2 29.10.2026 -
Tomás Ferreyra Defensores Unidos Aktiv 120 / 104 40% 1 29.10.2026 -
Luis Olivera Defensores Unidos Aktiv 122 / 116 40% 1 27.10.2026 -
Ulises Yegros Ferro Carril Oeste Aktiv 115 / 122 40% 1 22.10.2026 -
Juan Perdomo Deportivo La Guaira Aktiv 112 / 97 40% 1 22.10.2026 -
Martín Gianoli Deportivo La Guaira Aktiv 114 / 118 40% 1 19.10.2026 -
Damián Adín San Miguel Aktiv 127 / 125 40% 1 18.10.2026 -
Lorenzo Monti Temperley Aktiv 102 / 98 40% 1 18.10.2026 -
Valentín Moreno Tigre Aktiv 113 / 113 40% 1 16.10.2026 -
Facundo Miño Deportivo Riestra Aktiv 125 / 132 40% 1 16.10.2026 -
Carlos Osorio Atletico Venezuela Aktiv 86 / 88 40% 1 13.10.2026 -
Juan Ángel Vera Olimpia Aktiv 110 / 121 40% 1 13.10.2026 -
José Pinto Mineros de Guayana Aktiv 100 / 100 40% 2 12.10.2026 -
Diego Osio Deportivo La Guaira Aktiv 117 / 123 40% 1 12.10.2026 -
Fernando Bersano Madryn Aktiv 130 / 107 40% 1 08.10.2026 -
Yvo Calleros Madryn Aktiv 98 / 110 40% 1 08.10.2026 -
Leandro Lozano Boca Juniors Aktiv 129 / 123 40% 1 04.10.2026 -
Francisco Facello Chacarita Juniors Aktiv 108 / 112 40% 1 29.09.2026 -
Valentín Serrano Arsenal Aktiv 114 / 115 40% 1 27.09.2026 -
Juan Díaz Universidad Catolica Aktiv 110 / 105 40% 1 17.09.2026 -
Johan Madrid Sporting Cristal Aktiv 99 / 100 40% 1 17.09.2026 -
Éwil Murillo Santa Fe Aktiv 128 / 123 40% 1 13.09.2026 -
Rômulo Tigres Aktiv 140 / 112 40% 1 07.09.2026 -
Cristian Trujillo Deportes Tolima Aktiv 125 / 113 40% 1 07.09.2026 -
Emiliano Álvarez Progreso Aktiv 122 / 125 40% 1 06.09.2026 -
Kevin González Trujillanos Aktiv 88 / 99 40% 1 06.09.2026 -
Alfred Canales Universidad Catolica Aktiv 109 / 107 40% 1 05.09.2026 -
Erick Aguirre Monterrey Aktiv 113 / 121 40% 1 05.09.2026 -
Juan Camilo Mosquera Atletico Bucaramanga Aktiv 125 / 115 40% 1 04.09.2026 -
José García Atletico Bucaramanga Aktiv 104 / 117 40% 1 04.09.2026 -
Cristhofer Mesías Universidad de Concepcion Aktiv 95 / 107 40% 1 03.09.2026 -
Sebastián Vargas Nacional Aktiv 105 / 105 40% 1 03.09.2026 -
Ezequiel Neira Carabobo Aktiv 120 / 111 40% 2 02.09.2026 -
Jeyson Rojas Colo-Colo Aktiv 101 / 98 40% 1 30.08.2026 -
Mauricio Isais Pachuca Aktiv 111 / 122 40% 1 27.08.2026 -
Jorge Espejo Universidad de Concepcion Aktiv 119 / 116 40% 1 26.08.2026 -
Milton Valenzuela Atlas Aktiv 118 / 111 40% 1 26.08.2026 -
Diego Hernández Aguilas Doradas Aktiv 113 / 107 40% 1 25.08.2026 -
Guillermo Tegüé Real Cartagena Aktiv 91 / 107 40% 1 23.08.2026 -
Luis Jiménez Jaguares Aktiv 107 / 110 40% 1 21.08.2026 -
Facundo Velazco San Marcos de Arica Aktiv 107 / 91 40% 1 21.08.2026 -
Dennys Quintero Llaneros Aktiv 107 / 111 40% 1 20.08.2026 -
Victor Moreno Llaneros Aktiv 109 / 96 40% 1 20.08.2026 -
Carlos Adrián Sánchez Pachuca Aktiv 123 / 133 40% 1 16.08.2026 -
Diego Barbosa Toluca Aktiv 103 / 139 40% 1 16.08.2026 -
Efraín Navarro Once Caldas Aktiv 101 / 108 40% 1 15.08.2026 -
Jesús Yendis Caracas Aktiv 105 / 119 40% 1 14.08.2026 -
Sergio Sulbarán Zamora Aktiv 93 / 98 40% 1 14.08.2026 -
Cristian Tovar America de Cali Aktiv 112 / 98 40% 1 13.08.2026 -
Hugo Ancajima Universitario Aktiv 104 / 114 40% 1 13.08.2026 -
Tomás Escalante Plaza Colonia Aktiv 129 / 113 40% 1 12.08.2026 -
Adrián Montañez Deportivo Tachira Aktiv 90 / 96 40% 1 11.08.2026 -
Roger Manríque Zulia Aktiv 115 / 101 40% 1 10.08.2026 -
Miguel Pernía Carabobo Aktiv 95 / 108 40% 1 10.08.2026 -
Carlos Faya Deportivo La Guaira Aktiv 98 / 110 40% 1 07.08.2026 -
Alan Cervantes Club America Aktiv 107 / 128 40% 1 07.08.2026 -
Gianfranco Trasante Progreso Aktiv 111 / 99 40% 1 06.08.2026 -
Alejandro Lopera Tigres Aktiv 99 / 91 40% 1 06.08.2026 -
Ignacio Rodríguez Central Espanol Aktiv 103 / 116 40% 1 04.08.2026 -
Martín Ginzo Deportivo Maldonado Aktiv 115 / 115 40% 1 02.08.2026 -
Gustavo Mejia Universitario Popayan Aktiv 90 / 102 40% 1 02.08.2026 -
Ramón Juárez Club America Aktiv 117 / 145 40% 1 01.08.2026 -